CAPE
2058 2111 2109 1863 2100 1717 2167 2560 2523 2482 2251 2222 1766 1871 2308 2186 2270 2314 2825 3065 2294 1862 1979 1860 1971 2310 1566 1184 1433 1537 1449 1426 1359 1444 1600 1640 2097 3060 3740 4316 4259 3930 3543 3045 2403 2250 2016 2057 2418 2307 1942 1635 1794 1886 1973 2108 2029 1536 1287 1429 1438 1404 1334 1464 1551 1549 1576 1634 1547 1556 1570 1502 1586 1800 1881 1724 1428 1428 1552 1824 1849 1751 1642 1630 1689
2379 2332 1721 2050 2192 1813 2364 2523 2698 2830 2358 2158 2471 2428 2428 2530 2304 2499 2165 1981 1735 1789 1920 1908 1666 2073 1430 1582 1450 1168 1190 1493 1428 1435 1568 1436 2173 2932 2859 3768 4317 4089 3907 3474 2790 2567 2307 2197 2597 2602 2294 1918 1713 1902 2028 1982 1932 1692 1450 1510 1541 1467 1312 1492 1640 1710 1741 1798 1749 1755 1651 1450 1540 1857 1869 1793 1703 1727 1806 1896 1917 1812 1714 1702 1791
2551 2691 2330 2540 2410 2483 2575 2715 2856 2740 2883 2329 2842 2866 2763 2293 2266 2031 1912 1812 1613 1707 1760 1557 1586 1481 1838 1604 1360 1090 1235 1519 1189 1907 1433 986 1789 1969 1973 2781 3297 4079 4107 3893 3260 2967 2503 2555 2620 2612 2596 2402 1931 1794 1995 1993 1901 1860 1726 1581 1574 1540 1366 1456 1614 1742 1803 1792 1883 1881 1847 1654 1535 1476 1553 1582 1725 1776 1813 1876 1876 1879 1885 1913 1954
2988 3483 2897 2567 2353 2617 2876 2738 2643 2653 2503 2030 2065 2296 2454 2532 2392 2067 2002 1955 1598 1696 2071 1892 1567 1525 1842 2072 1613 1442 1685 1847 1642 1669 2145 2684 3026 2503 2008 2067 2730 2830 3812 4144 3742 3450 2821 2592 2753 2815 2722 2654 2386 1928 1962 2044 1963 2074 2010 1914 1753 1693 1654 1597 1708 1775 1755 1791 1935 2092 2073 2050 2007 1944 1919 1945 1921 1893 1944 1952 1911 1972 2041 2057 2074
3480 3525 2907 2720 2787 3014 2833 2789 2690 2648 2452 2425 2240 1850 1459 1702 2457 2171 2153 2067 1741 1677 2138 1949 1798 2219 2261 2144 1900 1689 1711 2288 1903 1664 2208 2007 2372 2192 2525 2542 2537 2926 2978 3861 3924 3666 3294 2770 2711 2868 2908 2798 2662 2306 1977 2107 2141 2141 2104 2056 1958 1808 1704 1839 1790 1852 1851 1989 2013 2127 2284 2402 2420 2413 2380 2243 2219 2178 2141 2175 2130 2133 2156 2164 2197
3597 3788 3126 2881 2774 2940 2899 2711 2995 2609 2558 2854 2325 1902 1502 1370 1393 1994 1803 1518 1203 1299 2028 2168 1913 1731 1888 2129 2013 1991 1923 1648 1727 1839 2003 1962 1990 2470 2488 2016 2528 2668 3083 3223 3982 3890 3665 3359 2997 2865 2852 2796 2660 2426 2227 2129 2139 2170 2116 2088 2016 1958 1824 1805 1838 1943 2148 2257 2138 2304 2463 2625 2690 2695 2671 2632 2519 2406 2413 2342 2324 2282 2313 2343 2357
3888 3891 3367 3108 2926 2858 2806 2620 2624 2405 2083 2018 2325 1936 1752 1275 1474 1441 1445 1318 1139 1172 1481 1539 1461 1636 1754 1470 1633 2097 2545 2065 1845 1839 1771 2116 2253 2174 2650 2736 2428 2154 2790 3047 3066 3916 3892 3850 3588 3236 3096 2883 2692 2464 2332 2266 2173 2176 2113 2117 2074 2156 2042 1871 1906 2075 2414 2458 2302 2531 2547 2676 2755 2671 2726 2726 2686 2671 2526 2464 2429 2444 2461 2449 2407
3713 3550 3415 3134 2828 2574 2428 2570 2651 2396 1929 1796 1678 1524 1501 1573 1576 1452 1655 1478 1490 1416 1678 1669 1480 1217 1354 2003 1977 1925 2080 1992 1453 1548 1599 2000 2084 2200 2350 3098 2228 1886 2240 2355 2692 3244 3761 3914 4012 3699 3357 3084 2791 2625 2502 2370 2331 2263 2240 2189 2186 2167 2390 2212 2223 2316 2520 2436 2460 2598 2579 2729 2787 2728 2742 2766 2773 2827 2691 2635 2642 2678 2646 2612 2574
3289 3289 3254 3043 2734 2750 2693 2698 2733 2214 1960 1655 1286 1277 1152 1179 1770 1723 1264 1382 1214 825 886 1186 1463 1148 634 289 68 1630 2106 1931 1765 1464 1662 1686 1920 2124 2336 3030 2152 1928 1752 1588 2016 2537 3050 3598 3982 4074 3783 3387 3108 3000 2756 2616 2522 2453 2392 2354 2329 2310 2556 2533 2407 2422 2573 2488 2685 2689 2802 2898 2877 2850 2843 2860 2890 2862 2776 2795 2722 2687 2750 2767 2731
2468 2628 2892 2771 2595 2666 2678 2714 2503 2442 2091 1716 1490 1465 1605 1643 1622 1603 1398 1284 1132 868 820 880 906 872 501 113 180 1222 2359 2287 2094 1767 1676 1753 1764 2388 2175 2152 2544 1966 2065 1660 1896 2281 2503 3132 3851 3790 4002 3700 3364 3123 3012 2980 2753 2635 2532 2494 2496 2470 2564 2694 2633 2600 2633 2653 2677 2732 2802 2812 2842 2826 2836 2877 2942 2873 2733 2713 2747 2771 2825 2767 2715
2461 2518 2677 2569 2453 2278 2168 2115 2015 1987 1785 1443 1216 1197 1316 1371 1407 1563 1456 1174 1063 960 908 897 787 741 747 948 1351 1648 1776 1690 1832 1828 1486 1235 1541 2270 2106 2062 2116 2272 2764 2064 2084 2377 2251 2252 3149 3490 3638 3925 3806 3498 3204 3059 3057 2843 2734 2620 2569 2566 2571 2786 2791 2694 2835 2836 2728 2724 2735 2754 2756 2800 2862 2851 2912 2880 2813 2783 2803 2800 2782 2709 2685
2637 2514 2408 2363 1967 1793 1772 1830 1751 1620 1372 1070 947 966 1098 1176 1099 1084 1128 1106 1010 1076 897 776 680 718 708 661 607 441 454 818 1276 1506 1576 1548 1402 1538 1488 1724 2201 2184 2376 2213 2266 2328 1808 1868 2807 3508 3537 3757 3868 3834 3556 3189 3046 3064 2919 2800 2680 2646 2680 2722 2844 2868 3027 3040 2960 2830 2749 2756 2783 2757 2785 2818 2782 2710 2668 2685 2716 2725 2753 2703 2603
2672 2624 2474 2284 1872 1790 1591 1369 1294 1181 1192 1042 840 816 946 1075 1202 1111 712 484 369 361 450 404 465 420 460 456 366 335 340 183 220 531 937 1116 1102 1362 1430 1434 1720 2222 2189 2069 1944 1978 2008 1718 1972 2515 2821 3281 3558 3781 3772 3501 3132 2958 3011 2928 2855 2784 2766 2750 2754 2964 2960 3226 2944 2868 2744 2709 2735 2790 2738 2712 2650 2583 2498 2414 2365 2438 2528 2588 2570
3095 2792 2848 2600 2425 2106 1931 1747 1569 1304 1169 1005 912 876 789 827 718 774 781 620 524 434 476 537 645 503 415 581 844 930 877 690 557 575 625 1098 1102 1228 1418 1482 1272 1542 2161 2298 2240 1844 1595 2512 2094 2529 2641 2948 3274 3531 3643 3635 3443 3102 2994 3025 2982 2888 2908 2894 2889 2884 2938 3230 3198 2829 2776 2633 2585 2656 2706 2656 2566 2474 2358 2247 2188 2163 2216 2311 2346
2845 2818 2592 2604 2479 2401 2315 2327 2008 1740 1546 1390 1334 1133 1036 913 869 798 718 652 648 671 771 755 532 541 656 596 530 614 1005 1480 1098 1009 974 1074 1226 1015 785 756 1148 1233 1493 2035 2303 2214 1938 1957 2231 2028 2076 2295 2883 3214 3515 3611 3429 3473 3083 2850 2930 3046 2969 3010 3077 3093 2989 3024 3161 2999 2818 2652 2585 2593 2627 2596 2518 2420 2333 2229 2138 2055 2004 2080 2105
1696 1708 1922 2078 2610 2692 2437 2408 2392 2221 2305 2095 1762 1530 1355 1442 1179 1131 970 754 652 837 1046 740 444 340 126 372 501 366 291 382 1116 1714 1051 1227 1282 984 933 793 601 807 715 945 1354 2081 1818 1745 2102 2018 1856 2140 2730 2930 3270 3445 3588 3830 3707 3244 2852 2811 3137 3125 3185 3148 3188 3069 3059 2902 2740 2650 2571 2513 2636 2588 2550 2458 2300 2241 2168 2078 1969 1977 2003
1384 1397 1490 1846 1852 1898 1749 1709 1645 1798 2216 2372 1716 1783 1601 1111 982 854 948 684 862 829 857 1079 788 823 343 165 384 484 445 319 229 592 515 359 550 976 2007 1054 941 691 1199 2027 983 1274 1386 2049 2032 2197 2114 2179 2872 3048 3086 3447 3472 3770 3765 3852 3368 2770 2776 3141 3202 3243 3243 3240 3218 2977 2722 2550 2538 2497 2586 2721 2600 2486 2358 2203 2143 2075 2010 1944 1945
1156 1538 1476 1338 1732 1644 1724 1786 1775 1937 2006 2334 2461 1697 1406 897 836 786 790 948 864 682 599 852 1196 1243 1152 599 483 272 521 558 348 261 2959 2502 1764 1350 1266 1502 1548 875 1086 733 958 667 1190 2025 1806 1806 1514 1974 2878 3172 3085 3153 3504 3343 3326 3394 3702 2938 2697 2741 3128 3196 3304 3223 3298 3224 2878 2607 2530 2537 2654 2813 2864 2575 2432 2219 2083 2021 2015 2004 1988
776 1071 1080 1192 1462 1614 1562 1618 1667 1665 1754 1958 1982 1277 1055 904 986 1369 1458 976 715 493 732 922 1088 1065 883 1060 1062 855 603 325 199 223 210 1137 2202 1656 2014 1208 1319 1248 977 1073 1325 1434 1689 1330 1370 1354 1522 1233 1316 2379 3164 3238 3282 3373 3545 3462 3470 3216 2789 2651 2702 3173 3259 3261 3214 3310 3111 2853 2530 2476 2461 2498 2830 2703 2452 2408 2168 2086 2028 2002 2007
1217 961 887 1083 1046 1295 1400 1470 1501 1452 1427 2082 1725 2115 1729 1257 1445 1621 1477 1471 1221 1133 1105 927 904 805 843 1051 1028 931 1244 934 438 346 219 252 246 355 1710 1198 1038 1253 1356 1396 1386 1481 1298 1361 1248 639 1396 1215 848 1102 2040 2895 2764 2817 3080 3293 3274 3386 3028 2607 2669 2740 3129 3263 3233 3197 3311 2991 2817 2484 2326 2519 2726 2957 2616 2490 2457 2240 2134 2124 2119
1311 991 860 821 1038 1069 1025 1238 1281 1214 1476 1085 1027 1131 1307 1471 1538 1685 1268 1244 1305 1215 888 629 734 708 876 1084 1143 1144 1089 884 792 732 461 321 344 295 383 490 462 584 1097 1497 2018 2073 2117 1934 1740 1271 1244 1189 919 1016 1517 1876 1979 2234 2975 3152 3200 3223 3134 2802 2434 2822 2786 3068 3230 3228 3294 3184 2959 2960 2872 2802 2923 2981 2843 2603 2622 2600 2372 2294 2476
1130 1091 1051 606 557 690 942 885 861 454 1028 644 653 708 692 1277 1684 1423 1332 1424 1396 1399 1078 936 924 847 860 881 995 943 862 770 728 801 664 322 258 266 432 396 347 330 274 1112 1720 2561 2407 1629 1454 1581 1305 1088 1003 750 993 942 1026 1309 2004 2755 3096 3063 3137 2862 2526 2538 2726 2668 2948 3351 3389 3616 3225 3090 3177 3222 3120 3087 3224 3116 2780 2858 2979 2982 2922
1072 1113 1151 885 986 1024 652 630 776 863 1016 804 552 451 221 522 694 710 720 761 1198 1218 1060 834 565 623 792 858 701 632 437 464 575 624 520 380 307 313 271 292 258 214 383 319 828 2483 2379 1939 1502 1397 1303 1212 959 876 819 700 803 713 1124 1911 2400 2777 2775 2793 2574 2380 2307 2310 2493 2760 3413 3879 3968 3641 3459 3580 3606 3415 3361 3476 3326 3128 3249 3333 3278
1006 995 1000 342 957 878 744 749 811 920 930 684 692 656 445 624 893 907 922 779 756 1029 1180 1012 1036 856 860 460 472 379 402 726 745 730 496 288 322 368 370 355 333 258 308 388 650 2706 2362 1806 1472 1222 1109 1053 1046 961 826 647 577 526 961 1291 1626 2084 2456 2465 2405 2251 2122 2034 1965 2142 2570 3298 3816 3862 3708 3601 3902 3904 3755 3711 3495 3433 3469 3646 3401
808 1175 815 764 1290 814 971 796 913 742 734 881 818 707 726 793 831 712 614 630 683 657 780 622 669 872 745 598 459 428 395 513 461 475 444 463 474 409 300 234 201 200 165 262 342 845 1508 1863 1511 1613 992 833 806 818 825 930 1057 967 859 1298 1504 1569 1899 2082 2195 2087 1948 1853 1770 1765 1838 2096 2711 3175 3288 3338 3563 3766 3800 3985 3935 3436 3571 3669 3440
889 860 946 915 924 906 888 963 893 878 834 788 726 689 728 867 733 610 436 630 755 627 724 576 622 512 484 452 332 268 344 384 442 547 445 374 431 413 263 168 279 221 176 208 362 466 846 1429 1188 1323 1463 1413 1139 832 797 902 1081 992 912 1017 1146 1398 1243 1402 1762 1917 1801 1706 1702 1622 1651 1758 1974 2395 2808 2993 3072 3265 3447 3531 3766 4093 3752 3449 3441
857 689 900 911 785 908 828 842 900 830 786 763 692 700 736 762 751 670 678 724 588 716 814 536 498 641 574 448 447 324 380 505 562 536 427 384 407 578 494 200 120 166 222 232 217 321 328 483 1554 1778 1422 1260 987 786 725 768 882 1105 1413 1406 604 979 1203 1287 1265 1545 1634 1698 1615 1558 1559 1590 1657 1786 2107 2516 2731 2876 3158 3225 3276 3380 3478 3253 3109
818 810 728 766 846 770 802 784 791 704 684 708 732 540 676 655 796 773 640 334 560 460 469 434 411 404 367 443 536 373 334 485 609 629 652 669 787 792 461 418 259 82 96 76 112 78 256 496 831 635 809 1220 1199 1056 1122 1346 1393 1573 1630 1368 1567 1386 1059 961 995 1257 1488 1497 1304 1488 1359 1379 1410 1456 1596 1875 2228 2441 2601 2816 2970 3030 3046 3090 3004
874 753 780 703 852 785 754 798 822 685 620 729 697 626 699 693 555 644 666 569 484 559 536 509 462 335 423 413 502 442 354 351 409 470 514 595 638 690 599 312 260 258 88 109 85 61 79 107 103 627 778 719 956 1191 1361 1386 1590 1974 1706 1799 1741 1776 1474 1149 1090 1080 1173 1132 1182 1198 1383 1235 1107 1259 1366 1479 1642 1870 2068 2209 2352 2492 2601 2617 2706
440 528 574 633 754 755 828 856 826 617 583 571 603 614 620 767 676 785 587 577 520 633 688 576 526 588 539 430 353 301 320 307 274 305 368 431 398 425 463 594 499 294 195 150 90 129 91 130 117 111 779 1284 980 1022 1217 1483 1643 2068 2166 1908 1517 1263 1083 958 953 855 865 819 676 991 1241 1197 1099 1032 1096 1184 1270 1370 1503 1642 1726 1787 1859 1937 1986
891 465 755 592 601 721 852 610 618 890 759 557 613 487 595 788 749 901 840 635 812 782 942 774 558 498 472 300 378 371 360 369 364 280 339 358 307 263 256 409 563 424 206 112 64 79 218 139 167 189 178 244 990 1369 1614 1859 2053 2108 2125 1688 1354 1124 999 918 859 765 592 556 633 865 1074 1063 1076 1023 968 969 997 1073 1133 1177 1181 1203 1227 1284 1359
282 423 538 562 492 518 305 332 428 488 470 501 505 497 696 905 930 1016 980 900 803 716 688 726 505 397 363 329 351 389 367 332 338 298 230 221 202 131 148 203 301 386 462 350 90 26 125 126 122 183 218 204 180 166 387 1645 2429 2242 1877 1792 1490 1026 828 758 799 811 725 657 623 647 823 925 906 864 849 862 907 962 994 998 941 882 842 848 870
357 467 603 702 740 590 571 712 589 710 752 825 822 844 860 954 982 1012 878 843 755 779 915 832 614 400 433 399 374 353 357 294 276 198 148 100 59 73 81 47 60 153 254 185 136 25 40 181 201 184 222 222 178 198 228 638 1810 2059 1632 1751 1596 1251 1239 1068 939 615 601 610 601 696 778 850 867 668 671 719 785 842 912 956 965 916 805 708 665
771 487 650 529 564 731 559 641 880 883 882 916 782 794 888 791 661 687 726 744 769 685 891 904 562 457 400 377 338 364 300 224 179 118 67 24 3 0 1 0 7 34 157 146 50 14 7 89 258 261 274 303 238 231 194 499 1669 2133 1746 1721 1807 1741 1623 1393 1210 1113 837 739 631 580 658 870 978 792 809 923 1007 1081 1058 986 976 948 938 845 712
755 812 839 689 933 942 849 846 950 931 948 998 1070 839 833 806 752 770 907 1125 900 876 792 684 496 443 412 374 272 262 203 184 158 98 38 21 0 0 0 1 10 27 34 41 51 26 15 27 97 139 197 354 345 258 228 156 322 1538 1826 1411 1260 1276 1213 1204 1121 1072 865 892 751 571 596 794 1000 994 1049 1034 1040 1128 1194 1142 1024 965 926 865 789
230 477 421 503 674 839 933 845 835 880 955 1182 1357 1077 866 811 774 788 762 904 863 883 787 669 476 436 370 339 325 242 247 172 144 101 55 25 6 0 0 14 30 24 27 52 58 51 34 35 103 141 211 331 367 342 310 275 401 1064 1524 1392 1390 1204 1143 1121 915 966 982 984 898 755 752 884 1018 986 857 772 841 996 1194 1164 999 903 839 802 696
526 706 662 507 632 874 915 812 745 748 876 1117 1242 1236 1222 1102 984 778 742 895 953 862 805 724 526 534 440 361 296 319 271 222 132 71 61 34 8 0 1 16 32 27 20 31 32 30 34 26 59 191 258 362 426 417 382 348 348 669 1170 911 989 986 1033 1209 1231 1222 1275 1003 1030 926 908 1140 1441 1214 914 816 863 1024 1174 1052 930 820 738 662 0
273 111 345 414 476 818 858 798 686 692 799 1073 1324 1396 1266 1153 1036 921 885 1002 943 865 831 628 543 510 450 415 366 374 366 274 224 202 193 109 35 0 2 12 26 25 19 5 10 19 19 19 43 149 256 307 341 357 451 472 414 462 966 1222 850 892 792 843 893 960 1109 1261 1045 1054 1024 1317 1609 1480 1082 889 966 1180 1168 1027 1011 1040 882 684 0
25 31 102 337 670 602 695 810 760 732 757 700 1348 1513 1555 1436 1288 1174 1052 1072 1075 857 765 605 468 411 436 420 468 462 431 389 311 300 257 140 66 7 16 14 23 28 24 7 8 10 14 21 24 105 155 202 274 272 388 487 475 519 513 699 1212 1441 1128 786 862 1015 1274 1499 1580 1373 1262 1268 1380 1364 1400 1372 1366 1338 1114 910 1085 1370 1139 854 725
204 206 46 138 202 315 438 338 402 516 554 590 973 1729 1824 1666 1468 1264 1216 1143 1052 956 837 696 574 444 455 456 352 435 426 298 255 258 190 150 151 46 27 45 32 40 25 17 4 9 12 18 23 49 165 176 270 278 315 379 248 387 498 351 621 1399 1466 1455 1398 1360 1624 1437 1442 1843 1716 1733 1641 1627 1636 1606 1492 1244 1026 1112 1312 1132 899 754 705
441 292 186 200 423 510 428 486 658 856 673 564 636 1393 1791 1580 1445 1171 1196 1129 980 864 872 726 618 637 592 504 434 520 545 425 188 60 33 28 4 25 38 56 72 33 28 18 16 9 13 25 29 38 179 205 188 196 326 284 193 262 332 322 456 854 995 1009 1271 1671 1707 1740 1673 1908 2230 1642 1548 1537 1515 1322 1245 1362 1458 1376 1024 771 507 0 578
733 705 823 775 274 222 417 482 487 458 615 895 894 907 869 1279 1322 1024 875 958 1085 1030 958 811 660 604 583 547 555 599 493 350 248 87 0 0 0 6 64 66 50 44 43 33 19 19 22 24 22 30 31 110 133 241 249 310 348 367 327 304 315 474 1103 996 942 1094 1401 1764 1726 1565 1915 2294 1896 1520 1250 997 968 1054 1025 839 749 726 763 782 788
1070 867 754 777 192 99 192 170 278 415 675 776 676 477 435 507 932 1182 1302 1281 1233 1160 940 678 579 646 675 664 668 695 768 727 846 782 357 0 0 168 154 116 58 26 54 59 31 28 34 24 20 23 23 20 74 163 130 279 384 336 286 255 293 378 430 458 736 1006 1269 1450 1619 1476 1429 1660 2203 2232 1967 1490 1312 1062 706 690 760 809 749 722 744
1309 1218 654 582 542 489 296 262 374 540 648 506 211 209 470 613 743 1095 1188 1094 1017 1020 908 740 611 568 664 702 663 676 766 876 873 593 472 402 348 259 175 67 0 1 28 50 50 27 28 19 16 18 20 16 11 53 143 144 295 323 296 275 314 401 457 452 637 696 1086 1526 1488 1322 1472 1824 1866 2095 2265 2213 1929 1816 1367 791 714 696 698 624 596
1064 927 856 671 580 628 522 779 522 390 312 584 80 66 412 531 641 693 948 1105 1108 1128 1052 869 724 724 834 1023 1005 836 587 704 811 837 791 857 424 253 118 0 1 2 16 0 1 2 3 12 16 28 28 18 15 4 23 166 255 328 334 337 410 612 624 269 423 747 1415 1786 1928 1718 1519 1751 2147 1838 1972 2090 2267 2232 2197 1594 1098 894 733 656 627
1073 991 656 464 559 713 1158 1218 1092 810 683 416 72 27 30 184 506 567 849 1096 1176 1217 1144 903 757 719 833 1176 755 754 673 476 426 582 722 896 602 318 139 38 24 16 0 3 0 4 10 14 26 50 28 35 31 18 10 55 204 247 186 315 396 328 456 464 649 766 1304 2078 1714 1573 1424 1413 1930 1933 1889 1972 2266 2435 2339 2432 1978 1406 1056 842 700
894 905 895 816 729 592 1277 805 730 713 492 363 6 0 0 0 332 360 732 1130 1293 1365 1268 996 750 779 992 537 426 232 234 263 371 581 908 706 477 296 162 60 8 9 25 32 14 1 2 1 3 12 11 14 19 20 16 7 58 235 272 310 442 298 217 562 696 626 728 2135 1775 1505 1268 1225 1676 1648 1490 1564 1938 2324 2543 2501 2604 2318 1898 1459 1185
835 610 600 676 694 472 940 1155 571 718 322 108 7 0 0 0 0 163 749 1138 1392 1480 1238 893 950 1101 728 137 214 283 307 409 497 639 676 464 360 216 116 33 10 17 33 29 3 6 6 6 2 0 0 0 2 3 10 25 78 175 373 207 82 88 93 152 220 530 578 1363 1030 701 695 1100 1462 1609 1428 1526 1816 1969 2370 2688 2682 2677 2442 2159 1914
822 552 500 513 552 569 474 541 613 708 637 319 1 0 0 0 0 510 1016 1245 1491 1382 1120 1096 1328 1017 844 450 143 142 272 606 560 458 474 488 423 180 103 45 23 22 39 5 10 11 8 6 0 0 0 0 0 0 0 0 0 0 78 78 78 251 295 210 130 240 414 389 1282 730 784 913 1564 1690 1480 1556 1575 1614 2092 2543 2528 2469 2390 2275 2142
638 369 259 378 620 685 688 617 211 400 407 410 16 0 0 0 64 446 869 1270 1297 1269 1133 1335 1470 1295 1211 772 281 86 362 501 464 552 666 560 248 36 36 14 9 35 50 30 2 9 4 6 0 0 0 0 0 0 0 0 0 0 7 109 194 223 203 116 167 403 471 446 1250 1311 1208 842 1264 1270 1326 1397 1531 1498 1939 2387 2273 2036 1860 1690 1556
797 909 527 320 488 602 358 219 288 312 305 123 0 0 0 162 9 476 980 1064 1190 1405 1454 1259 1118 1316 1435 1447 854 506 611 550 496 577 478 185 0 1 5 4 22 82 56 36 8 1 5 13 0 0 3 0 0 0 0 0 0 0 0 22 198 254 91 110 171 324 381 469 945 1348 1133 1044 809 1047 882 902 1101 1545 1779 1936 1891 1653 1460 1353 1294
Wind_Speed
19 19 19 18 20 21 20 18 18 18 19 20 20 20 21 21 22 22 22 22 22 23 23 22 20 19 22 19 19 19 15 13 15 17 15 14 13 12 7 10 12 12 11 10 9 9 7 7 8 8 7 8 8 7 9 10 12 12 12 13 13 13 14 14 15 15 15 14 14 14 14 14 14 15 14 14 14 14 13 13 12 11 10 10 10
20 20 19 20 22 22 23 20 18 18 16 17 21 20 21 21 21 20 22 23 24 23 22 21 19 19 22 22 19 17 15 14 13 17 19 15 14 16 9 7 11 13 13 12 11 11 10 9 8 7 7 8 8 7 7 9 11 12 13 13 13 13 13 14 14 14 14 14 14 13 13 13 13 14 14 15 15 14 14 14 14 13 12 12 12
15 19 19 20 21 22 23 22 21 20 19 19 23 25 27 26 26 24 22 22 23 24 22 21 20 20 21 21 18 17 16 14 12 15 18 15 11 13 16 9 7 10 13 14 14 13 13 11 10 8 6 6 7 8 7 7 9 11 12 13 13 13 13 13 13 14 14 13 13 12 11 11 12 13 13 14 14 14 15 15 14 14 13 13 13
16 19 20 21 21 21 22 23 22 22 21 20 22 25 27 29 30 28 25 24 24 25 24 23 22 20 21 20 19 18 17 16 15 15 17 19 15 15 19 17 11 7 9 14 15 15 15 14 12 10 9 6 6 7 7 7 8 9 11 12 13 13 12 12 12 13 13 13 13 12 11 11 11 12 13 13 13 14 14 14 14 14 14 14 14
18 20 22 22 21 21 21 22 23 21 20 20 21 22 22 22 26 27 26 25 25 26 25 24 23 23 21 19 19 21 18 16 16 17 17 18 16 15 17 18 18 13 9 11 14 14 15 15 14 13 11 9 7 6 6 7 7 7 9 11 12 12 13 12 11 12 12 12 12 12 12 11 11 12 13 13 13 13 13 14 14 14 15 14 14
18 20 20 20 20 20 19 20 22 22 19 19 20 22 21 20 19 20 22 22 21 22 25 24 24 23 23 21 22 21 20 18 18 18 20 22 19 17 17 17 18 21 20 13 13 14 14 15 16 15 13 11 9 7 6 6 7 7 8 9 10 11 12 12 12 11 10 10 12 11 11 11 11 11 11 12 11 12 12 13 14 14 14 15 15
18 19 18 18 18 19 18 18 17 19 19 18 18 18 20 20 19 18 18 18 17 19 22 24 25 25 24 22 21 22 22 21 21 21 22 23 22 20 19 18 17 19 23 25 17 13 14 14 16 17 16 13 10 9 7 6 7 7 8 8 8 9 10 11 11 10 9 9 11 10 10 11 10 10 10 11 10 10 11 12 13 14 14 14 15
20 19 18 17 17 17 18 18 18 19 19 17 16 16 17 18 19 20 19 19 18 18 21 22 24 24 26 25 23 23 23 22 22 22 22 24 24 22 20 21 18 17 20 23 25 23 16 14 15 17 17 16 13 9 8 7 7 7 8 9 9 9 8 9 10 10 9 9 9 10 10 10 10 10 10 10 10 9 10 11 12 12 13 14 15
17 17 18 17 17 18 18 19 20 22 22 21 19 18 18 18 20 20 18 18 17 15 16 19 20 21 23 24 nan 25 26 24 23 24 24 23 24 24 22 23 22 19 18 20 22 25 23 17 14 15 17 17 16 13 9 8 8 8 8 9 9 10 9 9 10 10 10 9 9 9 9 9 10 10 10 10 10 9 8 9 10 11 12 12 13
19 19 20 19 19 19 18 18 19 20 21 20 19 18 19 18 18 20 20 19 18 18 17 17 18 19 18 19 23 27 30 29 26 25 25 23 24 25 23 23 24 22 21 19 20 23 26 24 17 14 14 17 18 16 12 10 8 8 9 9 9 10 11 11 10 10 10 10 9 8 8 8 8 8 8 9 9 8 8 8 8 9 10 11 12
21 21 21 20 20 19 19 20 21 21 21 20 21 21 21 21 19 19 22 23 22 21 20 17 16 17 16 17 22 26 28 30 30 28 27 24 23 24 24 24 24 24 24 22 20 21 23 28 29 24 20 15 18 17 15 11 9 8 9 10 10 10 10 11 12 11 11 10 10 9 8 8 7 7 7 7 7 7 7 7 7 7 8 9 10
19 20 20 20 20 21 21 22 23 23 23 22 22 23 24 24 24 23 22 23 24 25 26 23 20 18 17 16 15 17 19 22 25 26 27 26 24 25 24 25 25 24 24 22 22 23 23 25 29 29 26 20 17 18 16 13 11 9 9 10 11 10 10 11 12 13 12 12 11 10 10 9 8 7 6 6 6 6 6 6 6 6 7 8 9
19 20 21 22 22 21 22 23 24 26 26 25 23 22 23 25 27 28 26 25 26 28 29 29 26 24 24 21 19 19 18 19 19 21 23 25 26 27 26 26 26 25 25 26 24 23 24 24 26 29 28 27 23 18 17 15 11 10 9 9 10 11 11 10 11 12 13 13 12 11 10 10 9 8 7 5 4 4 5 5 5 6 6 7 8
22 22 23 23 24 25 25 26 27 27 28 28 27 27 25 25 26 29 32 28 28 29 30 31 29 28 25 25 25 26 25 23 21 22 22 23 24 26 28 28 26 26 26 27 27 26 23 25 25 27 28 28 28 27 23 20 14 11 10 10 10 11 11 11 10 11 12 13 12 11 10 10 10 10 8 7 5 4 4 4 4 5 5 6 7
25 26 26 27 26 26 26 26 25 27 27 26 27 27 28 29 28 28 29 31 30 30 30 31 26 28 27 24 24 25 29 28 26 23 24 23 25 29 29 27 24 24 27 27 28 29 28 26 27 26 27 29 29 28 27 25 21 14 11 11 11 11 11 11 11 11 12 13 13 12 11 10 10 10 9 8 7 5 4 4 4 4 4 4 5
23 22 23 25 28 28 26 25 25 25 25 25 26 26 27 29 31 30 30 29 30 30 31 29 29 28 26 27 26 26 25 29 30 28 26 26 26 29 27 29 31 37 38 32 31 31 30 28 28 27 25 27 27 27 27 28 22 17 14 12 11 12 11 11 11 11 11 12 13 13 12 11 10 9 8 8 7 6 5 4 4 4 4 3 3
25 25 26 26 25 25 24 23 23 23 25 27 26 26 24 24 25 26 28 27 28 29 30 30 28 34 30 26 25 26 26 28 31 29 30 29 28 30 35 35 38 32 31 38 35 32 34 31 30 28 26 25 25 25 27 29 29 25 20 15 13 13 12 12 11 11 11 11 12 13 13 12 11 10 8 7 6 5 5 4 4 4 3 3 3
26 27 28 27 28 28 27 26 25 24 24 25 26 28 31 30 33 36 34 35 34 29 29 29 29 29 32 32 30 25 24 25 27 28 34 34 30 30 30 34 40 32 36 38 34 33 28 32 34 28 26 27 26 26 26 27 29 30 27 23 15 14 13 13 12 11 11 10 11 12 13 13 13 11 9 8 6 5 5 4 4 3 3 3 3
26 28 29 29 30 29 29 28 27 27 26 26 28 31 33 34 35 36 37 36 37 34 33 30 29 29 29 28 30 29 28 28 25 27 26 33 35 34 32 33 34 34 34 36 36 34 32 33 33 31 28 29 29 29 28 27 25 26 24 22 19 17 15 14 13 12 11 11 11 12 12 13 13 12 10 8 7 5 4 4 4 3 2 2 2
27 29 30 30 31 31 30 30 29 28 29 30 30 34 35 36 37 36 37 38 37 36 32 31 29 27 29 28 27 28 28 32 29 27 23 26 27 32 33 34 34 34 36 38 37 36 35 36 35 30 32 37 33 30 30 29 27 25 25 20 21 20 17 16 14 13 13 12 13 12 12 12 12 12 11 10 8 7 5 5 4 4 2 2 2
28 28 31 31 31 32 31 30 30 29 30 29 30 33 33 34 36 37 38 39 38 36 35 32 30 28 28 29 28 27 28 28 28 30 26 25 27 29 32 35 35 34 36 39 41 41 40 39 37 37 34 32 34 32 31 32 29 26 25 20 20 21 20 19 17 16 14 13 13 13 13 12 12 12 13 12 12 10 8 6 5 5 4 3 3
28 29 29 31 32 33 31 29 29 29 30 30 31 32 33 35 38 40 40 39 39 38 36 33 32 29 27 26 26 26 27 27 29 29 28 27 25 28 30 32 33 35 36 38 40 42 42 41 41 40 38 35 35 35 35 36 33 27 22 19 21 20 22 22 20 18 16 15 14 13 14 14 13 12 12 13 13 13 12 9 7 6 7 6 5
28 28 29 30 32 33 31 30 30 30 30 31 31 31 32 33 34 34 36 37 38 38 36 35 34 32 29 28 26 27 26 24 27 28 28 27 26 25 29 34 35 34 38 37 39 44 45 44 42 41 41 39 38 39 37 36 36 28 22 20 24 23 22 22 22 20 19 18 16 15 14 15 14 14 13 14 14 14 13 12 10 9 8 7 6
29 28 30 29 33 33 32 32 32 32 32 33 32 33 34 34 34 35 36 37 39 39 39 37 36 34 32 30 28 27 28 29 30 30 31 28 27 23 26 31 34 34 36 40 39 41 43 44 43 42 41 39 39 40 38 39 40 28 26 22 27 26 23 23 22 22 21 20 19 17 15 15 16 15 14 13 14 16 15 14 12 10 9 9 7
30 31 31 30 33 33 32 32 32 34 34 35 35 35 35 35 35 36 36 37 39 39 39 38 39 38 35 34 32 29 29 31 31 32 33 32 29 26 26 29 31 32 35 39 40 38 37 38 41 42 43 41 39 40 37 37 38 33 24 25 28 34 30 25 22 22 21 21 20 19 18 18 18 18 17 16 15 15 15 15 15 12 10 10 9
31 32 32 32 33 33 33 33 33 34 35 36 36 36 37 37 36 36 36 38 40 40 40 39 39 38 37 35 34 33 33 34 34 35 34 34 33 31 29 30 32 30 34 39 40 38 36 35 37 41 43 43 42 42 41 37 34 26 22 27 34 36 34 29 25 21 20 20 20 20 21 20 20 19 20 19 17 17 16 15 15 16 13 10 10
32 33 33 33 33 34 35 34 34 34 36 37 36 37 38 38 38 37 37 39 41 40 41 40 40 39 38 38 36 36 37 36 36 36 37 38 37 35 33 30 32 32 32 36 38 35 32 35 40 42 42 44 44 45 44 41 36 27 25 29 33 31 34 32 28 22 18 18 21 21 22 22 21 21 20 20 20 19 18 18 17 16 15 13 12
34 33 33 34 35 34 35 35 35 36 37 37 38 38 39 39 40 39 38 39 40 40 41 41 41 40 40 40 39 38 37 38 38 38 38 39 39 38 36 34 33 nan nan nan 37 nan 33 34 40 40 42 43 44 46 46 43 40 29 24 34 35 36 34 32 31 30 24 19 17 21 22 23 22 22 21 21 21 21 20 19 19 19 18 17 15
35 35 34 35 34 35 35 36 37 38 38 39 40 40 40 40 40 40 40 40 40 41 41 41 41 41 42 42 41 40 39 39 39 40 39 40 41 40 39 36 34 33 nan 34 nan nan nan 34 36 42 42 44 43 46 48 47 43 36 36 37 37 38 39 34 29 29 22 19 16 16 21 24 24 23 22 21 21 22 22 21 21 21 20 19 18
34 34 35 34 35 35 36 37 39 39 39 41 42 42 41 41 41 41 42 42 42 43 42 42 42 44 45 45 43 41 41 39 40 40 41 41 41 41 40 40 40 34 35 35 nan 33 nan 37 35 35 42 44 45 45 48 48 44 40 40 37 38 38 34 34 34 31 26 22 18 16 17 22 24 24 23 22 22 22 23 22 22 22 22 21 19
36 36 36 36 35 36 37 37 38 40 41 42 43 43 42 41 41 41 43 45 45 45 46 45 44 45 46 46 46 44 43 41 39 40 41 41 42 42 41 41 40 39 36 35 nan nan 36 33 37 35 38 44 46 46 47 49 48 45 44 39 38 36 32 33 30 29 27 24 21 20 17 19 22 23 24 23 23 22 23 23 23 23 22 22 21
38 36 37 37 36 36 36 36 37 39 41 43 43 42 42 41 41 42 42 44 46 47 46 46 44 44 46 48 47 44 44 42 41 41 41 41 42 41 42 41 41 41 39 37 nan nan 34 33 35 38 38 38 42 44 45 47 48 44 47 40 37 36 38 39 34 29 28 25 22 19 17 17 19 22 23 23 23 22 23 24 24 24 23 22 22
39 39 39 39 39 39 39 39 39 40 42 43 44 43 43 42 41 42 43 45 47 47 47 45 45 43 45 44 43 42 45 44 43 42 41 41 nan nan nan nan nan 42 41 41 39 nan nan 37 36 37 39 39 40 44 42 41 45 50 48 43 40 41 40 40 38 32 29 27 23 19 15 13 16 20 22 23 23 22 22 23 24 24 24 24 23
41 40 40 40 41 41 41 41 41 40 41 42 43 43 44 44 41 41 43 45 47 48 48 47 45 41 39 41 42 43 46 45 42 41 nan nan nan nan nan nan nan nan 44 43 nan nan nan nan 38 38 39 41 40 42 41 40 44 49 51 47 46 43 42 42 40 38 30 28 25 21 16 13 14 19 21 21 22 22 22 23 25 26 25 26 25
39 40 41 42 43 44 43 43 43 42 42 42 44 44 44 44 43 43 44 46 46 47 48 49 46 42 39 42 43 42 42 42 41 nan nan nan nan nan nan nan nan nan nan nan nan nan nan nan nan 37 37 41 43 41 39 39 41 47 49 48 46 45 44 43 42 40 36 33 29 25 21 16 14 17 21 21 21 22 23 23 25 27 27 28 27
39 41 42 42 44 45 44 44 44 44 44 44 44 44 44 45 44 44 46 47 46 47 48 48 47 44 41 41 40 38 39 39 38 37 nan nan nan nan nan nan nan nan nan nan nan nan nan nan 38 40 39 39 44 44 40 38 39 45 50 49 46 44 44 44 43 42 39 33 32 28 23 19 17 17 20 21 21 22 23 24 26 28 30 29 29
41 41 41 41 41 42 43 44 43 43 45 46 45 45 45 46 46 46 47 48 47 47 47 47 45 43 41 38 36 36 37 36 36 nan nan nan nan nan nan nan nan nan nan nan nan nan nan nan nan 41 42 40 43 46 43 38 38 42 49 51 49 44 43 44 44 43 39 33 31 31 27 20 16 16 18 20 21 22 22 23 25 27 29 30 nan
41 41 41 42 42 43 44 44 45 44 44 47 49 48 46 47 48 48 49 48 46 46 45 43 42 41 39 36 34 34 35 34 33 34 35 35 nan nan nan nan nan nan nan nan nan nan nan nan nan 39 44 41 41 44 43 39 38 41 47 52 52 48 45 45 43 42 41 39 36 32 27 23 18 17 18 20 21 21 21 22 23 26 29 31 nan
nan nan 42 42 44 43 43 44 45 45 45 46 50 50 49 49 49 48 47 45 44 43 42 41 39 37 35 34 33 32 33 33 32 34 35 34 nan nan nan nan nan nan nan nan nan nan nan nan nan 39 41 42 40 39 41 40 39 41 44 51 54 51 46 43 43 42 40 35 29 23 22 23 22 23 20 19 20 21 21 22 23 24 28 30 31
42 42 nan 43 43 44 43 43 43 45 46 46 50 51 49 49 49 47 45 43 42 41 39 38 36 34 33 31 30 31 33 33 33 34 35 35 35 nan nan nan nan nan nan nan nan nan nan nan nan nan 40 42 42 40 40 40 39 37 40 47 50 50 47 45 42 42 40 34 29 27 24 23 23 21 20 21 20 21 21 22 21 23 25 28 30
45 43 43 43 44 43 44 44 45 47 46 45 47 51 51 50 49 46 44 42 40 39 37 35 33 32 31 29 28 31 32 31 30 nan nan nan nan nan nan nan nan nan nan nan nan nan nan nan nan nan 40 41 41 40 38 38 35 34 39 43 47 51 50 47 44 44 43 36 31 28 29 30 29 28 28 28 26 24 23 22 24 20 23 nan 29
46 46 45 45 43 44 45 45 45 46 46 48 53 53 52 50 49 46 44 40 37 37 35 32 30 29 28 27 27 25 29 30 29 nan nan nan nan nan nan nan nan nan nan nan nan nan nan nan nan nan nan 40 38 37 35 36 37 36 35 39 42 48 50 48 46 47 46 41 36 31 30 33 32 31 30 26 26 28 28 29 26 26 24 25 28
48 47 47 46 45 nan 45 44 45 47 49 50 51 50 48 48 47 46 44 39 36 35 33 31 28 26 27 27 27 27 29 33 32 32 34 nan nan 32 29 27 nan nan nan nan nan nan nan nan nan nan nan nan nan 35 34 33 35 34 34 36 38 45 48 48 44 48 46 42 36 31 30 33 34 31 30 27 26 29 27 26 22 21 24 26 27
48 48 47 47 48 48 47 46 46 48 50 51 52 49 48 47 47 45 42 38 35 34 32 29 26 24 24 26 27 29 31 32 31 30 30 33 35 33 30 nan nan nan nan nan nan nan nan nan nan nan nan nan nan nan 34 32 32 34 34 33 33 38 42 42 43 43 45 39 36 31 30 34 33 31 30 28 27 28 26 23 22 23 24 27 27
47 45 46 49 49 48 46 48 48 48 46 52 nan nan 49 47 45 43 39 35 32 32 29 26 24 24 24 25 27 28 27 25 29 29 31 32 33 32 28 nan nan nan nan nan nan nan nan nan nan nan nan nan nan nan nan 33 35 34 35 33 32 33 37 39 39 42 44 40 37 32 30 33 34 30 27 28 28 28 26 22 22 25 25 26 27
45 45 47 48 49 48 48 48 47 46 45 52 nan nan nan 44 42 41 36 30 29 29 27 24 23 23 22 24 24 24 25 24 25 26 29 33 35 34 30 nan nan nan nan nan nan nan nan nan nan nan nan nan nan nan nan nan 32 32 33 33 33 28 28 31 35 41 47 46 38 36 31 32 33 31 28 28 29 27 26 24 23 25 26 25 26
44 44 46 47 47 47 50 47 47 45 46 50 nan nan nan nan 39 37 32 27 26 27 26 24 23 23 27 30 25 24 25 26 28 28 31 35 37 35 31 nan nan nan nan nan nan nan nan nan nan nan nan nan nan nan nan nan nan 32 34 33 32 27 24 28 34 41 46 47 44 40 29 29 33 31 28 30 31 28 28 26 26 25 26 26 26
43 43 43 45 46 46 48 47 46 47 46 54 nan nan nan nan nan 34 30 26 26 26 25 23 23 27 31 27 26 26 27 28 28 28 31 34 36 32 30 nan nan nan nan nan nan nan nan nan nan nan nan nan nan nan nan nan nan 31 32 34 nan nan nan 36 33 37 40 44 42 38 31 28 32 30 29 33 34 30 30 31 32 29 28 28 28
41 41 42 43 44 45 44 43 44 46 44 46 nan nan nan nan nan 34 29 25 25 25 23 22 25 27 28 27 27 28 27 28 26 26 30 33 35 32 29 nan nan nan nan nan nan nan nan nan nan nan nan nan nan nan nan nan nan nan nan nan nan 38 36 33 33 34 35 40 39 37 32 29 31 31 32 35 35 32 31 32 34 30 29 29 30
39 41 42 43 44 45 44 43 42 42 40 40 nan nan nan nan nan 32 27 24 24 23 22 22 24 24 25 27 28 nan 27 27 26 29 30 32 34 nan nan nan nan nan nan nan nan nan nan nan nan nan nan nan nan nan nan nan nan nan nan 28 32 37 35 33 31 33 36 39 39 38 36 29 31 31 34 37 37 34 32 33 35 36 33 33 32
40 41 41 40 41 43 42 43 43 41 38 37 nan nan nan 41 nan 30 25 23 22 23 23 23 23 23 23 28 29 27 27 23 22 26 29 33 nan nan nan nan nan nan nan nan nan nan nan nan nan nan nan nan nan nan nan nan nan nan nan nan 29 31 nan 31 30 36 37 37 37 38 35 32 31 32 35 38 35 33 32 33 34 37 37 37 37
Wind_Direction
316 315 309 310 308 308 311 312 305 297 293 293 293 296 305 309 302 297 300 303 303 300 293 285 279 280 283 281 285 292 296 294 272 252 248 236 234 256 282 293 300 304 297 293 299 302 305 306 303 307 310 315 326 341 348 349 350 360 4 6 8 14 21 24 27 27 27 27 27 28 29 32 32 36 38 41 42 42 45 48 50 56 64 75 86
314 315 316 317 314 316 317 318 315 303 301 301 303 304 304 307 305 301 298 300 302 299 295 291 282 273 271 276 282 286 290 308 303 279 266 245 224 237 269 285 298 304 303 298 301 303 302 300 301 302 311 313 321 331 344 350 348 355 359 1 5 12 20 25 30 30 29 29 30 32 34 35 34 34 36 39 40 43 47 53 55 60 67 75 83
325 328 327 322 318 318 320 323 325 322 318 317 315 312 308 306 304 301 299 301 303 299 295 290 287 280 279 280 279 280 290 300 296 291 286 275 257 245 247 265 278 298 301 303 302 302 303 300 301 302 304 309 313 324 336 348 348 350 353 354 359 7 15 22 30 33 31 30 31 34 37 39 36 37 39 41 43 46 51 55 59 64 69 76 81
346 342 342 337 334 330 330 334 338 336 331 324 318 314 310 304 301 300 299 301 305 302 295 292 289 283 277 283 275 275 281 284 286 290 294 292 278 261 256 260 285 292 295 297 300 301 299 301 297 296 298 300 310 319 328 339 349 349 348 350 353 357 5 16 26 32 34 32 31 33 36 37 37 36 38 42 47 50 53 58 61 67 73 77 81
344 342 340 341 341 338 337 339 339 334 330 326 319 314 317 311 302 299 300 305 307 305 302 296 294 293 289 279 278 285 279 271 274 280 287 291 285 274 267 265 266 279 281 276 290 293 296 296 295 293 292 296 302 310 320 331 339 345 347 348 350 350 355 5 16 27 32 33 33 33 33 33 34 34 34 37 45 50 54 58 63 67 73 79 82
344 341 340 339 338 337 336 334 327 325 322 316 321 321 327 326 316 304 305 306 306 303 301 298 294 292 290 289 289 291 287 280 280 281 280 283 286 284 279 269 262 261 264 271 272 281 288 290 290 291 291 291 296 303 315 327 334 338 348 348 349 347 351 356 3 15 22 27 31 33 34 32 32 33 33 35 41 50 56 60 62 65 70 75 79
344 341 341 341 341 339 338 334 329 327 328 328 327 327 330 333 326 320 314 316 319 314 305 298 292 289 287 285 286 286 286 288 286 283 281 280 281 286 284 281 274 265 260 259 265 274 275 283 287 286 288 290 291 296 309 321 331 337 344 345 348 344 344 350 352 357 4 15 24 27 32 33 32 33 36 40 40 47 58 65 66 67 69 71 74
346 346 347 347 346 345 343 342 340 337 337 337 337 339 336 335 332 331 327 327 324 317 311 305 300 293 283 281 285 286 286 288 285 283 281 278 279 277 275 279 282 275 270 263 262 265 274 271 279 285 285 287 290 294 301 312 323 332 341 343 343 344 335 341 342 343 348 2 12 18 26 31 33 33 35 43 46 44 52 63 68 70 71 72 72
354 352 349 348 346 348 347 351 347 340 339 341 344 344 344 345 338 335 333 326 324 320 311 308 306 299 281 271 nan 284 288 288 285 281 276 275 275 272 267 268 274 282 272 269 265 261 267 274 269 275 280 284 284 286 290 301 317 323 332 340 340 339 331 334 336 338 340 349 353 5 13 21 29 33 35 41 47 48 48 55 66 72 73 73 74
353 351 347 347 347 348 344 338 335 335 337 339 344 345 343 340 339 333 328 325 326 324 320 317 315 315 307 290 280 277 278 283 283 279 278 276 272 271 265 260 263 269 272 275 272 264 259 264 274 269 274 280 283 284 284 287 302 317 324 330 335 334 331 328 332 334 337 342 345 349 358 10 21 30 35 40 44 51 51 51 58 66 72 73 74
350 346 344 345 345 342 340 339 336 334 335 339 342 342 341 338 339 334 327 328 328 323 321 319 318 315 314 298 282 277 277 283 283 281 280 279 276 271 265 259 259 262 265 270 275 274 266 257 256 256 256 278 281 285 286 287 289 304 317 323 327 330 329 325 328 331 332 336 340 340 345 354 7 22 33 35 42 49 55 54 51 54 61 69 72
346 345 344 345 344 342 341 337 335 334 336 339 338 336 336 335 334 333 333 328 326 325 321 321 322 320 317 314 307 294 286 282 283 285 277 273 273 271 269 263 261 262 263 261 262 271 273 264 257 256 253 259 277 281 289 290 290 293 309 317 323 324 327 324 323 325 325 332 336 335 336 342 350 5 20 31 33 40 47 50 49 47 50 59 65
348 348 348 348 346 344 341 337 336 336 337 337 336 335 333 332 331 326 323 325 324 321 322 320 318 314 313 316 312 305 301 298 298 292 283 271 269 273 272 270 267 266 261 258 259 262 266 269 262 256 254 250 257 278 285 289 291 296 301 308 315 319 319 322 322 317 320 321 331 331 332 335 340 349 358 9 17 26 34 39 42 41 45 52 57
351 351 351 349 347 346 344 342 340 338 336 336 336 334 334 330 326 326 324 326 321 318 317 314 314 310 304 298 299 300 305 306 303 301 293 281 275 276 276 274 271 266 264 262 261 261 261 264 264 260 255 251 250 253 259 266 276 298 297 300 303 310 312 315 317 317 316 313 320 326 328 330 333 340 345 350 358 1 11 22 28 29 35 49 54
351 351 351 350 350 347 344 341 339 337 336 336 335 334 330 331 329 326 323 322 322 318 319 314 312 302 293 289 290 287 289 293 296 297 295 290 281 266 262 262 268 265 260 263 263 261 259 258 261 260 257 252 247 249 253 259 266 283 294 294 294 299 307 310 313 315 315 313 314 318 321 322 327 333 337 341 347 350 354 359 9 12 16 36 50
339 338 341 341 342 344 341 340 341 339 338 336 334 334 330 328 326 326 325 324 322 320 311 312 313 299 294 291 285 281 274 278 279 284 289 285 283 283 274 261 249 242 240 239 242 250 257 259 261 261 260 258 253 251 254 254 265 276 286 290 295 294 297 304 309 312 310 311 308 311 311 313 316 321 329 333 339 344 346 347 348 359 1 10 32
334 340 338 333 330 331 331 334 334 333 333 333 334 334 327 322 316 315 320 327 326 318 317 316 315 310 307 296 293 292 284 272 261 263 265 269 270 270 272 267 258 251 255 249 243 240 243 251 254 254 259 260 258 255 253 256 256 255 260 275 289 288 288 292 300 302 304 304 303 303 303 305 308 311 319 324 332 335 335 335 341 352 356 351 3
336 335 328 330 330 328 330 331 331 331 332 331 328 324 322 322 327 329 330 326 323 325 326 323 321 315 313 312 308 299 285 274 264 261 264 266 267 265 267 268 266 260 254 255 255 247 244 244 245 241 242 247 254 255 253 253 254 252 249 251 275 277 279 287 290 291 293 298 295 296 298 299 301 305 310 308 315 328 327 320 325 338 349 351 351
330 326 327 328 328 327 328 329 329 330 328 327 326 324 327 331 331 330 329 326 326 331 332 327 321 318 314 313 312 310 305 290 282 261 250 259 261 262 264 268 266 262 256 258 260 262 255 249 243 237 241 244 235 242 248 250 254 254 257 256 262 269 273 278 279 281 286 287 285 286 290 293 295 297 298 303 302 314 306 306 301 306 327 336 342
326 328 325 325 326 326 326 327 328 330 329 331 331 326 329 330 331 329 328 329 331 331 330 325 324 317 311 306 303 302 303 302 299 290 270 251 248 256 262 266 266 265 262 257 258 258 254 251 252 248 236 241 240 231 235 244 247 250 251 260 261 265 270 270 272 275 276 278 278 278 279 281 285 287 289 283 282 283 291 285 285 286 287 292 317
322 323 323 322 324 323 325 326 324 326 322 326 325 326 328 329 328 328 328 328 329 328 325 327 325 320 309 305 301 297 295 296 296 297 287 266 255 252 254 259 258 258 259 257 256 256 256 254 250 250 245 241 243 239 235 238 238 241 248 261 265 266 267 267 269 269 271 269 272 273 273 276 276 278 278 278 273 272 278 279 278 279 274 265 251
321 320 319 323 324 322 322 320 320 319 322 324 325 325 326 327 330 330 330 328 326 325 325 323 321 317 314 304 299 296 296 294 292 287 287 283 263 252 249 249 251 254 255 257 256 255 256 254 252 251 251 247 244 242 235 233 231 229 242 262 267 268 266 267 267 268 267 265 262 262 265 266 269 272 273 276 276 276 272 274 280 276 273 268 260
316 318 319 320 319 315 319 321 318 319 320 319 320 321 321 322 321 323 323 322 322 320 318 319 316 315 314 309 301 298 295 293 289 285 280 278 269 261 252 248 245 245 254 252 251 254 254 255 253 250 250 251 247 243 241 240 240 230 207 240 260 265 268 268 267 267 265 262 260 257 255 256 259 261 263 265 272 277 277 274 276 276 277 279 274
315 316 318 316 313 316 320 319 319 317 318 317 319 320 320 320 322 323 324 321 319 316 316 315 312 312 313 308 300 294 292 292 293 294 292 287 283 271 263 254 251 253 252 252 249 254 256 255 256 254 251 250 248 247 246 243 239 228 218 224 243 251 262 267 267 266 264 261 258 256 254 250 249 249 250 253 259 267 272 274 276 275 276 277 279
317 318 311 311 310 313 316 318 319 318 316 318 318 319 319 320 320 320 320 318 314 313 311 311 309 312 311 309 304 296 290 289 289 290 294 295 288 277 270 261 252 249 253 254 255 256 258 255 254 253 250 249 246 247 246 242 239 237 230 224 239 242 242 249 261 264 262 259 256 254 253 249 245 244 242 242 245 253 263 269 271 272 272 275 276
313 311 312 311 312 314 314 315 315 315 315 315 317 317 318 318 317 316 317 317 316 312 310 309 308 306 304 303 301 298 294 289 286 288 287 286 286 282 273 269 266 256 252 256 256 254 257 258 255 252 249 248 246 244 245 245 243 244 241 231 225 234 240 238 241 251 259 262 258 252 249 248 245 244 241 239 238 241 248 258 266 269 271 271 270
315 313 313 315 313 312 312 312 312 313 313 314 314 316 315 315 315 315 317 317 314 312 311 307 305 303 302 301 300 297 294 292 290 287 286 285 285 283 280 268 264 261 253 255 255 256 251 253 256 256 254 249 246 244 244 245 246 244 246 242 239 231 235 234 231 234 244 258 268 258 250 246 244 243 243 241 238 237 241 247 255 260 262 263 264
313 315 317 315 311 309 309 310 310 309 309 312 313 313 314 314 314 314 314 313 313 312 309 307 304 302 299 299 297 295 294 292 291 288 286 284 284 284 282 280 270 nan nan nan 255 nan 254 251 252 254 256 255 249 245 244 244 242 244 241 241 241 239 240 239 239 240 235 230 244 266 257 249 243 240 240 240 239 237 236 240 246 253 257 257 258
320 317 314 309 310 309 309 309 309 309 310 312 312 313 314 313 313 312 312 310 311 309 306 305 302 300 299 296 295 294 293 290 289 287 284 282 282 282 282 278 273 271 nan 254 nan nan nan 252 246 251 256 258 254 247 244 241 238 239 242 242 239 239 245 246 244 248 247 246 246 245 259 253 246 241 237 236 237 237 235 235 239 245 250 253 254
313 315 314 315 313 312 310 311 310 310 311 313 314 314 314 313 311 311 310 310 310 308 306 304 302 299 297 295 293 292 291 288 285 283 283 280 279 278 275 276 277 271 266 258 nan 254 nan 252 252 248 250 254 256 249 244 241 238 237 241 243 240 240 246 247 245 246 246 246 248 249 253 254 247 242 237 233 234 235 235 235 236 238 242 248 250
317 315 313 313 314 313 312 310 311 311 310 311 312 313 313 312 311 310 310 311 311 310 309 306 302 299 296 294 293 291 289 287 283 281 281 279 276 274 272 271 270 270 268 261 nan nan 255 247 248 248 247 247 249 249 245 242 238 238 241 243 241 243 248 245 250 249 249 251 251 252 248 253 250 244 239 235 233 233 233 233 234 236 239 243 246
314 314 315 315 314 314 313 312 311 311 311 312 312 313 312 313 312 312 311 310 310 309 307 306 304 300 297 293 291 291 289 288 285 280 277 275 273 272 270 267 266 265 264 262 nan nan 247 249 244 242 249 248 246 245 242 240 239 240 237 239 239 243 242 239 244 247 249 251 247 249 255 251 255 250 242 238 235 235 234 233 233 234 237 240 243
317 319 319 319 317 317 317 316 314 312 313 313 313 313 314 314 313 312 312 311 310 309 308 305 303 302 297 292 291 292 290 288 284 280 277 274 nan nan nan nan nan 265 262 260 257 nan nan 252 249 243 245 251 246 246 245 241 238 236 237 237 239 240 240 240 240 247 250 251 248 245 247 255 260 259 249 240 236 237 237 236 234 234 236 237 240
322 322 320 319 318 318 317 315 315 313 313 314 313 314 314 313 314 313 313 312 310 308 307 305 305 302 293 290 292 292 289 287 284 281 nan nan nan nan nan nan nan nan 263 259 nan nan nan nan 249 248 243 251 248 248 246 242 237 235 236 236 237 239 240 240 240 241 249 249 251 249 249 260 269 265 255 244 238 238 239 239 236 235 236 237 238
317 319 320 320 320 319 319 318 317 317 315 315 315 315 314 315 316 315 313 312 309 308 307 306 306 301 294 292 293 291 287 286 285 nan nan nan nan nan nan nan nan nan nan nan nan nan nan nan nan 245 245 247 249 246 249 244 236 235 235 235 236 237 237 240 239 240 247 250 250 249 251 258 270 268 258 247 240 239 240 241 239 236 237 238 239
316 319 322 324 322 321 320 319 319 319 318 317 317 317 315 313 313 314 313 311 310 308 307 306 305 303 300 298 295 291 288 288 288 288 nan nan nan nan nan nan nan nan nan nan nan nan nan nan 242 246 247 247 246 246 247 244 236 235 235 234 235 237 238 240 239 239 243 248 246 248 248 256 268 267 258 248 242 241 242 243 241 238 237 240 241
319 319 318 316 316 317 318 315 315 317 319 320 319 318 317 315 315 316 314 314 311 308 307 306 305 304 302 301 297 293 291 291 291 nan nan nan nan nan nan nan nan nan nan nan nan nan nan nan nan 243 245 245 244 244 247 246 240 234 234 233 234 237 237 239 238 237 242 250 249 244 241 248 265 269 261 251 246 245 246 247 245 241 239 241 nan
316 317 316 317 317 318 318 318 318 319 318 319 318 318 319 318 318 318 315 313 310 308 307 307 306 304 302 300 299 297 295 294 295 295 292 290 nan nan nan nan nan nan nan nan nan nan nan nan nan 236 241 241 242 242 245 248 243 235 231 231 231 234 236 235 236 236 237 240 243 240 235 240 254 268 263 254 250 250 251 251 248 244 241 242 nan
nan nan 319 320 317 316 317 317 316 316 318 319 319 319 320 321 321 318 314 311 309 309 309 308 307 306 304 301 301 301 298 298 300 300 299 297 nan nan nan nan nan nan nan nan nan nan nan nan nan 235 234 236 239 239 243 245 242 234 229 230 230 232 234 235 234 234 234 236 239 242 239 244 254 255 257 254 252 253 254 253 251 248 245 245 247
320 319 nan 317 316 315 314 315 318 320 320 320 317 319 320 321 320 318 313 310 309 310 309 308 309 308 305 305 305 302 301 303 306 307 307 306 302 nan nan nan nan nan nan nan nan nan nan nan nan nan 233 232 236 240 240 241 239 234 230 230 230 230 231 229 229 230 231 232 230 232 243 251 253 263 268 260 256 256 256 253 254 253 252 251 251
319 320 319 318 317 317 319 322 323 321 319 317 316 317 320 322 320 317 312 308 310 310 308 308 310 309 307 307 307 306 306 311 316 nan nan nan nan nan nan nan nan nan nan nan nan nan nan nan nan nan 229 230 234 238 239 240 241 235 232 230 227 228 228 226 224 226 229 229 232 238 245 250 251 254 255 250 247 252 250 254 247 257 258 nan 255
318 319 318 318 321 321 319 318 318 318 319 313 314 320 323 322 320 316 312 309 308 309 307 307 311 312 309 308 306 311 315 317 319 nan nan nan nan nan nan nan nan nan nan nan nan nan nan nan nan nan nan 224 229 235 236 237 236 234 230 231 227 225 228 227 226 226 228 230 237 243 245 249 253 253 255 254 248 254 248 249 246 250 255 257 255
320 319 321 323 321 nan 319 321 321 321 316 316 322 328 329 328 322 317 314 310 309 310 307 304 309 309 305 305 306 309 313 316 318 323 325 nan nan 325 320 311 nan nan nan nan nan nan nan nan nan nan nan nan nan 228 231 231 235 234 230 230 227 224 225 228 225 224 228 234 239 243 242 246 251 251 252 251 248 249 249 250 261 262 262 263 259
320 319 320 321 320 321 322 322 319 316 318 322 328 331 331 329 324 318 315 310 308 308 306 305 305 305 303 303 305 307 311 314 315 315 321 325 325 325 318 nan nan nan nan nan nan nan nan nan nan nan nan nan nan nan 228 230 233 232 227 229 228 223 223 225 224 224 228 236 236 237 237 244 251 249 246 248 247 246 250 256 265 268 265 266 266
320 318 321 322 320 319 320 319 321 320 320 326 nan nan 330 329 327 323 317 314 310 308 306 304 303 303 302 302 305 306 309 318 321 322 322 320 320 320 316 nan nan nan nan nan nan nan nan nan nan nan nan nan nan nan nan 227 231 226 224 226 229 224 220 220 220 225 229 237 236 237 236 243 252 251 245 245 247 246 248 259 270 272 272 268 266
320 321 322 322 320 320 320 321 320 320 322 328 nan nan nan 328 329 325 319 316 312 311 307 302 302 303 305 301 299 307 309 310 318 325 325 322 320 317 311 nan nan nan nan nan nan nan nan nan nan nan nan nan nan nan nan nan 227 226 219 218 228 227 224 225 223 224 228 236 238 238 235 241 250 250 244 242 246 247 245 254 272 273 273 273 269
318 318 320 319 317 318 319 321 321 323 325 328 nan nan nan nan 331 326 318 316 314 314 311 308 307 301 292 293 314 323 321 321 325 331 327 324 321 318 313 nan nan nan nan nan nan nan nan nan nan nan nan nan nan nan nan nan nan 222 220 213 221 231 234 232 227 226 228 233 239 239 237 241 245 246 239 239 241 242 244 249 269 275 276 274 271
319 319 319 317 318 317 320 324 324 324 326 325 nan nan nan nan nan 320 318 317 318 317 314 312 306 298 303 315 316 320 326 331 336 340 327 321 321 320 317 nan nan nan nan nan nan nan nan nan nan nan nan nan nan nan nan nan nan 222 222 215 nan nan nan 229 227 228 230 234 244 245 236 236 246 245 237 237 240 240 243 247 258 271 271 270 268
320 320 319 318 317 318 319 322 324 324 326 330 nan nan nan nan nan 319 316 315 314 314 314 311 306 305 313 319 322 326 333 331 335 329 323 321 325 324 321 nan nan nan nan nan nan nan nan nan nan nan nan nan nan nan nan nan nan nan nan nan nan 229 232 236 236 229 227 236 241 246 239 234 244 243 236 238 241 240 243 248 249 258 266 267 266
320 321 319 317 317 318 321 322 326 325 328 326 nan nan nan nan nan 314 310 311 314 314 312 309 308 311 321 335 331 nan 333 329 329 318 324 323 331 nan nan nan nan nan nan nan nan nan nan nan nan nan nan nan nan nan nan nan nan nan nan 221 228 232 232 235 235 233 231 232 238 245 238 232 241 242 236 237 239 239 243 245 246 248 255 255 259
319 318 313 314 318 320 325 327 327 330 328 328 nan nan nan 315 nan 311 310 310 309 310 311 311 310 312 317 324 340 337 330 327 318 324 327 329 nan nan nan nan nan nan nan nan nan nan nan nan nan nan nan nan nan nan nan nan nan nan nan nan 229 232 nan 237 237 234 232 231 236 246 240 234 239 241 241 239 239 237 239 243 245 248 249 249 251